TimeEST,TemperatureF,Dew PointF,Humidity,Sea Level PressureIn,VisibilityMPH,Wind Direction,Wind SpeedMPH,Gust SpeedMPH,PrecipitationIn,Events,Conditions,WindDirDegrees,DateUTC
12:56 AM,33.1,23.0,66,30.01,10.0,Calm,Calm,-,N/A,,Clear,0,2014-02-16 05:56:00
1:56 AM,32.0,23.0,69,30.03,10.0,Calm,Calm,-,N/A,,Clear,0,2014-02-16 06:56:00
2:56 AM,33.1,21.9,64,30.04,10.0,Calm,Calm,-,N/A,,Clear,0,2014-02-16 07:56:00
3:56 AM,30.9,21.0,67,30.05,10.0,Calm,Calm,-,N/A,,Clear,0,2014-02-16 08:56:00
4:56 AM,30.9,19.9,64,30.06,10.0,Calm,Calm,-,N/A,,Clear,0,2014-02-16 09:56:00
5:56 AM,30.0,19.9,66,30.08,10.0,Calm,Calm,-,N/A,,Clear,0,2014-02-16 10:56:00
6:56 AM,30.9,19.9,64,30.08,10.0,Calm,Calm,-,N/A,,Clear,0,2014-02-16 11:56:00
7:56 AM,32.0,21.0,64,30.11,10.0,Calm,Calm,-,N/A,,Scattered Clouds,0,2014-02-16 12:56:00
8:56 AM,36.0,19.9,52,30.11,10.0,NNW,5.8,-,N/A,,Scattered Clouds,330,2014-02-16 13:56:00
9:56 AM,41.0,17.1,38,30.10,10.0,Calm,Calm,-,N/A,,Scattered Clouds,0,2014-02-16 14:56:00
10:56 AM,43.0,16.0,34,30.11,10.0,Calm,Calm,-,N/A,,Clear,0,2014-02-16 15:56:00
11:56 AM,44.1,17.1,34,30.09,10.0,South,6.9,-,N/A,,Clear,190,2014-02-16 16:56:00
12:56 PM,45.0,18.0,34,30.05,10.0,SSW,8.1,-,N/A,,Clear,210,2014-02-16 17:56:00
1:56 PM,48.0,21.0,34,30.03,10.0,Variable,4.6,-,N/A,,Clear,0,2014-02-16 18:56:00
2:56 PM,48.9,23.0,36,30.00,10.0,WSW,8.1,-,N/A,,Clear,240,2014-02-16 19:56:00
3:56 PM,50.0,23.0,35,30.00,10.0,Variable,4.6,16.1,N/A,,Clear,0,2014-02-16 20:56:00
4:56 PM,50.0,24.1,36,29.99,10.0,Variable,5.8,-,N/A,,Clear,0,2014-02-16 21:56:00
5:56 PM,46.9,25.0,42,30.01,10.0,Calm,Calm,-,N/A,,Clear,0,2014-02-16 22:56:00
6:56 PM,44.1,28.0,53,30.04,10.0,Calm,Calm,-,N/A,,Mostly Cloudy,0,2014-02-16 23:56:00
7:56 PM,43.0,30.0,60,30.06,10.0,Calm,Calm,-,N/A,,Overcast,0,2014-02-17 00:56:00
8:56 PM,45.0,28.0,52,30.09,10.0,NW,3.5,-,N/A,,Overcast,320,2014-02-17 01:56:00
9:56 PM,46.0,25.0,44,30.12,10.0,NW,9.2,-,N/A,,Mostly Cloudy,320,2014-02-17 02:56:00
10:56 PM,46.9,24.1,41,30.14,10.0,NW,8.1,-,N/A,,Overcast,310,2014-02-17 03:56:00
11:56 PM,39.0,26.1,60,30.19,10.0,North,12.7,-,N/A,,Clear,10,2014-02-17 04:56:00